Time,TemperatureF,DewpointF,PressureIn,WindDirection,WindDirectionDegrees,WindSpeedMPH,WindSpeedGustMPH,Humidity,HourlyPrecipIn,Conditions,Clouds,dailyrainin,SoftwareType,DateUTC
2013-03-16 00:10:00,40.7,35.0,29.79,West,277,0.0,1.0,79,0.00,,,0.00,weatherlink.com 1.10,2013-03-16 04:10:00,
2013-03-16 00:25:00,40.1,34.0,29.79,West,270,0.0,1.0,79,0.00,,,0.00,weatherlink.com 1.10,2013-03-16 04:25:00,
2013-03-16 00:40:00,39.8,35.0,29.78,West,270,0.0,1.0,82,0.00,,,0.00,weatherlink.com 1.10,2013-03-16 04:40:00,
2013-03-16 00:55:00,39.5,34.0,29.79,WSW,253,0.0,0.0,79,0.00,,,0.00,weatherlink.com 1.10,2013-03-16 04:55:00,
2013-03-16 01:10:00,39.7,34.0,29.79,WSW,253,0.0,0.0,79,0.00,,,0.00,weatherlink.com 1.10,2013-03-16 05:10:00,
2013-03-16 01:26:00,39.9,34.0,29.78,West,260,0.0,0.0,79,0.00,,,0.00,weatherlink.com 1.10,2013-03-16 05:26:00,
2013-03-16 01:41:00,40.0,34.0,29.78,WSW,255,0.0,0.0,78,0.00,,,0.00,weatherlink.com 1.10,2013-03-16 05:41:00,
2013-03-16 01:56:00,39.9,34.0,29.78,West,263,0.0,1.0,79,0.00,,,0.00,weatherlink.com 1.10,2013-03-16 05:56:00,
2013-03-16 02:11:00,39.9,34.0,29.78,West,262,0.0,0.0,78,0.00,,,0.00,weatherlink.com 1.10,2013-03-16 06:11:00,
2013-03-16 02:26:00,39.5,34.0,29.78,West,274,0.0,1.0,80,0.00,,,0.00,weatherlink.com 1.10,2013-03-16 06:26:00,
2013-03-16 02:41:00,39.2,34.0,29.78,West,273,0.0,1.0,80,0.00,,,0.00,weatherlink.com 1.10,2013-03-16 06:41:00,
2013-03-16 02:56:00,39.2,34.0,29.78,West,273,0.0,1.0,80,0.00,,,0.00,weatherlink.com 1.10,2013-03-16 06:56:00,
2013-03-16 03:11:00,38.8,34.0,29.78,West,278,0.0,1.0,83,0.00,,,0.00,weatherlink.com 1.10,2013-03-16 07:11:00,
2013-03-16 03:26:00,39.3,35.0,29.78,West,273,0.0,1.0,84,0.00,,,0.00,weatherlink.com 1.10,2013-03-16 07:26:00,
2013-03-16 03:41:00,40.3,35.0,29.78,West,278,0.0,1.0,82,0.00,,,0.00,weatherlink.com 1.10,2013-03-16 07:41:00,
2013-03-16 04:26:00,41.8,37.0,29.77,WNW,293,1.0,1.0,84,0.00,,,0.00,weatherlink.com 1.10,2013-03-16 08:26:00,
2013-03-16 05:11:00,43.2,37.0,29.78,WSW,246,0.0,1.0,79,0.00,,,0.00,weatherlink.com 1.10,2013-03-16 09:11:00,
2013-03-16 05:26:00,44.1,37.0,29.78,WSW,243,0.0,2.0,76,0.00,,,0.00,weatherlink.com 1.10,2013-03-16 09:26:00,
2013-03-16 05:41:00,44.9,37.0,29.79,NW,308,1.0,3.0,75,0.00,,,0.00,weatherlink.com 1.10,2013-03-16 09:41:00,
2013-03-16 05:56:00,45.0,38.0,29.79,ENE,74,1.0,2.0,76,0.00,,,0.00,weatherlink.com 1.10,2013-03-16 09:56:00,
2013-03-16 06:11:00,44.6,38.0,29.80,NNE,18,0.0,2.0,78,0.00,,,0.00,weatherlink.com 1.10,2013-03-16 10:11:00,
2013-03-16 06:26:00,44.6,39.0,29.79,NE,43,0.0,0.0,80,0.00,,,0.00,weatherlink.com 1.10,2013-03-16 10:26:00,
2013-03-16 06:41:00,44.2,39.0,29.80,NE,46,0.0,0.0,83,0.00,,,0.00,weatherlink.com 1.10,2013-03-16 10:41:00,
2013-03-16 06:56:00,43.9,39.0,29.80,NE,46,0.0,0.0,83,0.00,,,0.00,weatherlink.com 1.10,2013-03-16 10:56:00,
2013-03-16 07:11:00,43.6,39.0,29.81,NE,46,0.0,0.0,84,0.00,,,0.00,weatherlink.com 1.10,2013-03-16 11:11:00,
2013-03-16 07:26:00,43.5,39.0,29.80,NE,46,0.0,0.0,84,0.00,,,0.00,weatherlink.com 1.10,2013-03-16 11:26:00,
2013-03-16 07:41:00,43.4,39.0,29.81,East,84,0.0,1.0,84,0.00,,,0.00,weatherlink.com 1.10,2013-03-16 11:41:00,
2013-03-16 07:56:00,44.0,39.0,29.81,East,95,0.0,2.0,83,0.00,,,0.00,weatherlink.com 1.10,2013-03-16 11:56:00,
2013-03-16 08:26:00,44.0,40.0,29.80,East,95,0.0,0.0,84,0.00,,,0.00,weatherlink.com 1.10,2013-03-16 12:26:00,
2013-03-16 08:41:00,44.0,39.0,29.81,East,98,0.0,0.0,83,0.00,,,0.00,weatherlink.com 1.10,2013-03-16 12:41:00,
2013-03-16 08:56:00,44.3,39.0,29.81,SW,224,0.0,1.0,81,0.00,,,0.00,weatherlink.com 1.10,2013-03-16 12:56:00,
2013-03-16 09:11:00,44.7,39.0,29.81,ESE,103,0.0,1.0,80,0.00,,,0.00,weatherlink.com 1.10,2013-03-16 13:11:00,
2013-03-16 09:26:00,44.8,38.0,29.82,SSE,156,0.0,1.0,77,0.00,,,0.00,weatherlink.com 1.10,2013-03-16 13:26:00,
2013-03-16 09:41:00,45.4,39.0,29.80,ESE,120,1.0,2.0,78,0.00,,,0.00,weatherlink.com 1.10,2013-03-16 13:41:00,
2013-03-16 09:56:00,45.5,39.0,29.80,East,98,0.0,1.0,79,0.00,,,0.00,weatherlink.com 1.10,2013-03-16 13:56:00,
2013-03-16 10:11:00,46.0,39.0,29.79,ESE,103,1.0,1.0,76,0.00,,,0.00,weatherlink.com 1.10,2013-03-16 14:11:00,
2013-03-16 10:26:00,46.0,41.0,29.78,ESE,104,2.0,2.0,81,0.00,,,0.00,weatherlink.com 1.10,2013-03-16 14:26:00,
2013-03-16 10:41:00,46.5,41.0,29.77,ESE,120,1.0,2.0,82,0.00,,,0.00,weatherlink.com 1.10,2013-03-16 14:41:00,
2013-03-16 10:56:00,46.8,41.0,29.77,ESE,102,0.0,3.0,79,0.00,,,0.00,weatherlink.com 1.10,2013-03-16 14:56:00,
2013-03-16 11:11:00,48.2,41.0,29.75,ESE,119,2.0,3.0,77,0.00,,,0.00,weatherlink.com 1.10,2013-03-16 15:11:00,
2013-03-16 11:27:00,49.1,40.0,29.75,SE,124,2.0,3.0,72,0.00,,,0.00,weatherlink.com 1.10,2013-03-16 15:27:00,
2013-03-16 11:41:00,48.3,39.0,29.75,East,98,1.0,2.0,71,0.00,,,0.00,weatherlink.com 1.10,2013-03-16 15:41:00,
2013-03-16 11:57:00,47.8,39.0,29.75,ESE,117,1.0,2.0,72,0.00,,,0.00,weatherlink.com 1.10,2013-03-16 15:57:00,
2013-03-16 12:12:00,47.7,40.0,29.73,ESE,102,3.0,3.0,75,0.00,,,0.00,weatherlink.com 1.10,2013-03-16 16:12:00,
2013-03-16 12:27:00,48.5,41.0,29.72,East,79,1.0,3.0,76,0.00,,,0.00,weatherlink.com 1.10,2013-03-16 16:27:00,
2013-03-16 12:42:00,48.3,41.0,29.72,East,93,2.0,3.0,77,0.00,,,0.00,weatherlink.com 1.10,2013-03-16 16:42:00,
2013-03-16 12:57:00,48.6,41.0,29.72,ESE,109,2.0,2.0,76,0.00,,,0.00,weatherlink.com 1.10,2013-03-16 16:57:00,
2013-03-16 13:12:00,49.0,42.0,29.71,East,79,2.0,2.0,78,0.00,,,0.00,weatherlink.com 1.10,2013-03-16 17:12:00,
2013-03-16 13:27:00,49.2,41.0,29.71,East,89,1.0,2.0,74,0.00,,,0.00,weatherlink.com 1.10,2013-03-16 17:27:00,
2013-03-16 13:42:00,48.5,42.0,29.70,East,94,2.0,3.0,78,0.00,,,0.00,weatherlink.com 1.10,2013-03-16 17:42:00,
2013-03-16 13:57:00,48.5,43.0,29.69,ESE,110,2.0,4.0,80,0.00,,,0.00,weatherlink.com 1.10,2013-03-16 17:57:00,
2013-03-16 14:27:00,48.1,43.0,29.64,South,172,2.0,6.0,82,0.00,,,0.00,weatherlink.com 1.10,2013-03-16 18:27:00,
2013-03-16 14:42:00,49.5,43.0,29.66,ESE,103,2.0,5.0,79,0.00,,,0.00,weatherlink.com 1.10,2013-03-16 18:42:00,
2013-03-16 14:57:00,50.1,44.0,29.66,East,85,3.0,4.0,78,0.00,,,0.00,weatherlink.com 1.10,2013-03-16 18:57:00,
2013-03-16 15:12:00,50.2,44.0,29.65,SE,130,1.0,5.0,80,0.00,,,0.00,weatherlink.com 1.10,2013-03-16 19:12:00,
2013-03-16 15:27:00,49.7,44.0,29.65,ESE,113,4.0,6.0,80,0.00,,,0.00,weatherlink.com 1.10,2013-03-16 19:27:00,
2013-03-16 15:42:00,49.1,44.0,29.65,East,96,3.0,5.0,81,0.00,,,0.00,weatherlink.com 1.10,2013-03-16 19:42:00,
2013-03-16 15:57:00,48.5,44.0,29.64,East,86,2.0,3.0,83,0.00,,,0.00,weatherlink.com 1.10,2013-03-16 19:57:00,
2013-03-16 16:12:00,50.3,44.0,29.64,ESE,121,2.0,3.0,79,0.00,,,0.00,weatherlink.com 1.10,2013-03-16 20:12:00,
2013-03-16 16:27:00,50.0,45.0,29.64,SE,125,1.0,4.0,82,0.00,,,0.00,weatherlink.com 1.10,2013-03-16 20:27:00,
2013-03-16 16:42:00,49.3,44.0,29.64,ESE,118,1.0,3.0,83,0.00,,,0.00,weatherlink.com 1.10,2013-03-16 20:42:00,
2013-03-16 16:57:00,48.9,44.0,29.63,ESE,106,1.0,2.0,83,0.00,,,0.00,weatherlink.com 1.10,2013-03-16 20:57:00,
2013-03-16 17:12:00,48.9,44.0,29.64,ESE,121,0.0,1.0,83,0.01,,,0.01,weatherlink.com 1.10,2013-03-16 21:12:00,
2013-03-16 17:27:00,48.5,44.0,29.64,South,172,0.0,0.0,85,0.03,,,0.03,weatherlink.com 1.10,2013-03-16 21:27:00,
2013-03-16 17:42:00,48.1,44.0,29.65,WNW,290,2.0,2.0,87,0.03,,,0.03,weatherlink.com 1.10,2013-03-16 21:42:00,
2013-03-16 17:57:00,47.9,45.0,29.65,West,277,0.0,3.0,88,0.03,,,0.03,weatherlink.com 1.10,2013-03-16 21:57:00,
2013-03-16 18:12:00,48.2,43.0,29.66,North,349,0.0,5.0,83,0.02,,,0.03,weatherlink.com 1.10,2013-03-16 22:12:00,
2013-03-16 18:27:00,47.5,43.0,29.67,WSW,248,1.0,5.0,84,0.00,,,0.03,weatherlink.com 1.10,2013-03-16 22:27:00,
2013-03-16 18:42:00,46.7,42.0,29.69,NNE,30,1.0,5.0,84,0.00,,,0.03,weatherlink.com 1.10,2013-03-16 22:42:00,
2013-03-16 18:57:00,45.9,41.0,29.71,NE,34,2.0,7.0,84,0.00,,,0.03,weatherlink.com 1.10,2013-03-16 22:57:00,
2013-03-16 19:12:00,45.2,40.0,29.71,East,89,2.0,5.0,83,0.00,,,0.03,weatherlink.com 1.10,2013-03-16 23:12:00,
2013-03-16 19:27:00,44.8,41.0,29.72,NE,39,1.0,4.0,85,0.00,,,0.03,weatherlink.com 1.10,2013-03-16 23:27:00,
2013-03-16 19:42:00,42.7,38.0,29.74,WNW,286,0.0,7.0,84,0.00,,,0.03,weatherlink.com 1.10,2013-03-16 23:42:00,
2013-03-16 19:57:00,41.5,37.0,29.75,NE,41,1.0,6.0,85,0.00,,,0.03,weatherlink.com 1.10,2013-03-16 23:57:00,
2013-03-16 20:12:00,40.7,37.0,29.77,ESE,117,1.0,13.0,86,0.00,,,0.03,weatherlink.com 1.10,2013-03-17 00:12:00,
2013-03-16 20:27:00,40.4,37.0,29.79,NNW,335,2.0,7.0,87,0.00,,,0.03,weatherlink.com 1.10,2013-03-17 00:27:00,
2013-03-16 20:42:00,40.4,37.0,29.80,NE,39,4.0,6.0,87,0.00,,,0.03,weatherlink.com 1.10,2013-03-17 00:42:00,
2013-03-16 20:57:00,40.3,37.0,29.80,WSW,245,0.0,7.0,87,0.00,,,0.03,weatherlink.com 1.10,2013-03-17 00:57:00,
2013-03-16 21:12:00,40.1,37.0,29.82,ESE,107,0.0,7.0,87,0.00,,,0.03,weatherlink.com 1.10,2013-03-17 01:12:00,
2013-03-16 21:27:00,40.0,37.0,29.83,NNE,27,0.0,4.0,87,0.00,,,0.03,weatherlink.com 1.10,2013-03-17 01:27:00,
2013-03-16 21:42:00,39.7,36.0,29.84,SW,229,0.0,4.0,87,0.00,,,0.03,weatherlink.com 1.10,2013-03-17 01:42:00,
2013-03-16 21:57:00,39.6,36.0,29.86,NNE,25,3.0,7.0,87,0.00,,,0.03,weatherlink.com 1.10,2013-03-17 01:57:00,
2013-03-16 22:12:00,39.3,36.0,29.87,ENE,65,1.0,7.0,87,0.00,,,0.03,weatherlink.com 1.10,2013-03-17 02:12:00,
2013-03-16 22:27:00,39.2,36.0,29.88,South,180,1.0,6.0,87,0.00,,,0.03,weatherlink.com 1.10,2013-03-17 02:27:00,
2013-03-16 22:43:00,39.1,36.0,29.88,NNE,27,0.0,6.0,87,0.00,,,0.03,weatherlink.com 1.10,2013-03-17 02:43:00,
2013-03-16 22:58:00,38.8,36.0,29.89,WNW,289,0.0,3.0,88,0.00,,,0.03,weatherlink.com 1.10,2013-03-17 02:58:00,
2013-03-16 23:13:00,38.7,35.0,29.89,NE,34,2.0,4.0,87,0.00,,,0.03,weatherlink.com 1.10,2013-03-17 03:13:00,
2013-03-16 23:28:00,38.7,36.0,29.89,NNE,25,0.0,4.0,88,0.00,,,0.03,weatherlink.com 1.10,2013-03-17 03:28:00,
2013-03-16 23:43:00,38.5,35.0,29.91,North,9,2.0,3.0,88,0.00,,,0.03,weatherlink.com 1.10,2013-03-17 03:43:00,
2013-03-16 23:58:00,38.3,35.0,29.90,NNE,33,0.0,4.0,87,0.00,,,0.03,weatherlink.com 1.10,2013-03-17 03:58:00,